Weather History for Valparaiso, IN

Change the Weather History Date:

Thursday, March 14, 2013

  Actual Average Record
Temperature  
Mean Temperature 30 °F 37 °F  
Max Temperature 39 °F 46 °F 82 °F (2012)
Min Temperature 21 °F 28 °F 7 °F (1895)
Degree Days  
Heating Degree Days 35 28  
Month to date heating degree days 459 425  
Since 1 July heating degree days 4850 5157  
Moisture  
Dew Point 22 °F    
Average Humidity 72    
Maximum Humidity 96    
Minimum Humidity 43    
Precipitation  
Precipitation 0.00 in 0.07 in 2.18 in (1944)
Month to date precipitation 0.28 1.04  
Year to date precipitation 3.83 4.21  
Sea Level Pressure  
Sea Level Pressure 30.25 in    
Wind  
Wind Speed 8 mph (SW)    
Max Wind Speed 15 mph    
Max Gust Speed 20 mph    
Visibility 9 miles    
Events      
T = Trace of Precipitation, MM = Missing Value Source: NWS Daily Summary

Daily Weather History Graph

Daily Weather History Graph

Search for Another Location

Airport:

Trip Planner

Search our weather history database for the weather conditions in past years. The results will help you decide how hot, cold, wet, or windy it might be!

Date:

Astronomy

Mar. 14, 2013 Rise Set
Actual Time 7:01 AM CDT 6:53 PM CDT
Civil Twilight 6:33 AM CDT 7:21 PM CDT
Nautical Twilight 6:01 AM CDT 7:53 PM CDT
Astronomical Twilight 5:28 AM CDT 8:26 PM CDT
Moon 8:12 AM CDT (3/14) 10:12 PM CDT (3/14)
Length of Visible Light 12h 47m
Length of Day
11h 52m
Waxing Crescent, 9% of the Moon is Illuminated
Mar 14
Waxing Crescent
Mar 19
First Quarter
Mar 27
Full
Apr 2
Last Quarter
Apr 10
New

Hourly Weather History & Observations

Time (CDT) Temp. Windchill Dew Point Humidity Pressure Visibility Wind Dir Wind Speed Gust Speed Precip Events Conditions
12:53 AM 23.0 °F 15.8 °F 14.0 °F 68% 30.34 in 10.0 mi West 5.8 mph - N/A   Clear
1:53 AM 23.0 °F 14.7 °F 14.0 °F 68% 30.34 in 10.0 mi West 6.9 mph - N/A   Clear
2:53 AM 23.0 °F 15.8 °F 14.0 °F 68% 30.34 in 10.0 mi WSW 5.8 mph - N/A   Clear
3:53 AM 21.9 °F 14.5 °F 14.0 °F 72% 30.33 in 10.0 mi West 5.8 mph - N/A   Clear
4:53 AM 21.9 °F 17.2 °F 15.1 °F 75% 30.32 in 10.0 mi West 3.5 mph - N/A   Clear
5:53 AM 23.0 °F 17.0 °F 17.1 °F 78% 30.31 in 10.0 mi WSW 4.6 mph - N/A   Clear
6:53 AM 24.1 °F 17.0 °F 17.1 °F 75% 30.32 in 10.0 mi WSW 5.8 mph - N/A   Clear
7:53 AM 25.0 °F 18.1 °F 19.0 °F 78% 30.33 in 10.0 mi West 5.8 mph - N/A   Partly Cloudy
8:53 AM 28.0 °F 21.7 °F 19.0 °F 69% 30.34 in 10.0 mi West 5.8 mph - N/A   Mostly Cloudy
9:53 AM 30.9 °F 26.2 °F 19.0 °F 61% 30.34 in 10.0 mi SSW 4.6 mph - N/A   Partly Cloudy
10:53 AM 33.1 °F 24.9 °F 16.0 °F 50% 30.32 in 10.0 mi SW 10.4 mph - N/A   Mostly Cloudy
11:53 AM 35.1 °F 27.9 °F 18.0 °F 50% 30.30 in 10.0 mi SSW 9.2 mph - N/A   Clear
12:53 PM 37.0 °F 28.5 °F 19.9 °F 50% 30.29 in 10.0 mi SW 13.8 mph - N/A   Mostly Cloudy
1:53 PM 37.0 °F 29.8 °F 18.0 °F 46% 30.27 in 10.0 mi WSW 10.4 mph 17.3 mph N/A   Overcast
2:53 PM 39.0 °F 31.4 °F 18.0 °F 43% 30.25 in 10.0 mi SSW 12.7 mph 17.3 mph N/A   Overcast
3:53 PM 36.0 °F 29.0 °F 24.1 °F 62% 30.23 in 10.0 mi SSW 9.2 mph - N/A   Overcast
4:53 PM 36.0 °F 29.0 °F 24.1 °F 62% 30.22 in 10.0 mi SW 9.2 mph - N/A   Overcast
5:53 PM 36.0 °F 29.6 °F 26.1 °F 67% 30.22 in 10.0 mi WSW 8.1 mph - N/A   Overcast
6:53 PM 35.1 °F 29.3 °F 28.0 °F 76% 30.23 in 10.0 mi SW 6.9 mph - N/A   Overcast
7:53 PM 33.1 °F 26.1 °F 28.9 °F 85% 30.19 in 10.0 mi SSW 8.1 mph - N/A   Overcast
8:53 PM 33.1 °F 25.5 °F 28.9 °F 85% 30.18 in 8.0 mi SW 9.2 mph - N/A   Overcast
9:08 PM 33.8 °F 27.0 °F 28.4 °F 81% 30.14 in 8.0 mi SSW 8.1 mph - N/A   Overcast
9:53 PM 32.0 °F 25.6 °F 30.0 °F 92% 30.16 in 8.0 mi SSW 6.9 mph - N/A   Scattered Clouds
10:37 PM 32.0 °F 24.8 °F 30.2 °F 93% 30.13 in 8.0 mi SSW 8.1 mph - N/A   Overcast
10:53 PM 32.0 °F 24.8 °F 30.0 °F 92% 30.15 in 8.0 mi SSW 8.1 mph - N/A   Overcast
11:49 PM 32.0 °F 24.8 °F 30.2 °F 93% 30.10 in 5.0 mi SSW 8.1 mph - N/A   Scattered Clouds
11:53 PM 30.9 °F 23.5 °F 30.0 °F 96% 30.12 in 5.0 mi SSW 8.1 mph - N/A   Partly Cloudy